Time,TemperatureF,DewpointF,PressureIn,WindDirection,WindDirectionDegrees,WindSpeedMPH,WindSpeedGustMPH,Humidity,HourlyPrecipIn,Conditions,Clouds,dailyrainin,SoftwareType,DateUTC
2013-11-13 00:03:00,55.4,50.0,30.23,SE,146,0.0,0.0,82,0.00,,,0.00,weatherlink.com 1.10,2013-11-13 08:03:00,
2013-11-13 00:18:00,55.0,50.0,30.23,SE,145,0.0,0.0,84,0.00,,,0.00,weatherlink.com 1.10,2013-11-13 08:18:00,
2013-11-13 00:33:00,55.0,50.0,30.22,East,91,0.0,1.0,84,0.00,,,0.00,weatherlink.com 1.10,2013-11-13 08:33:00,
2013-11-13 00:48:00,55.1,50.0,30.23,ESE,108,1.0,1.0,83,0.00,,,0.00,weatherlink.com 1.10,2013-11-13 08:48:00,
2013-11-13 01:03:00,55.3,51.0,30.23,ESE,115,1.0,3.0,86,0.00,,,0.00,weatherlink.com 1.10,2013-11-13 09:03:00,
2013-11-13 01:18:00,55.3,51.0,30.23,ESE,106,2.0,4.0,86,0.00,,,0.00,weatherlink.com 1.10,2013-11-13 09:18:00,
2013-11-13 01:33:00,55.3,51.0,30.23,ESE,103,0.0,3.0,85,0.00,,,0.00,weatherlink.com 1.10,2013-11-13 09:33:00,
2013-11-13 01:48:00,54.7,50.0,30.22,East,89,0.0,0.0,85,0.00,,,0.00,weatherlink.com 1.10,2013-11-13 09:48:00,
2013-11-13 02:03:00,54.2,50.0,30.22,ESE,106,0.0,0.0,86,0.00,,,0.00,weatherlink.com 1.10,2013-11-13 10:03:00,
2013-11-13 02:18:00,54.3,51.0,30.22,North,356,0.0,1.0,87,0.00,,,0.00,weatherlink.com 1.10,2013-11-13 10:18:00,
2013-11-13 02:33:00,53.7,50.0,30.22,East,91,0.0,1.0,88,0.00,,,0.00,weatherlink.com 1.10,2013-11-13 10:33:00,
2013-11-13 02:48:00,53.9,51.0,30.21,East,94,1.0,1.0,89,0.00,,,0.00,weatherlink.com 1.10,2013-11-13 10:48:00,
2013-11-13 03:03:00,54.0,50.0,30.20,East,91,0.0,2.0,87,0.00,,,0.00,weatherlink.com 1.10,2013-11-13 11:03:00,
2013-11-13 03:18:00,53.9,50.0,30.20,ENE,73,1.0,2.0,87,0.00,,,0.00,weatherlink.com 1.10,2013-11-13 11:18:00,
2013-11-13 03:33:00,53.8,50.0,30.20,East,98,1.0,2.0,87,0.00,,,0.00,weatherlink.com 1.10,2013-11-13 11:33:00,
2013-11-13 03:48:00,53.5,50.0,30.20,East,90,1.0,2.0,88,0.00,,,0.00,weatherlink.com 1.10,2013-11-13 11:48:00,
2013-11-13 04:03:00,53.3,50.0,30.20,East,100,0.0,1.0,88,0.00,,,0.00,weatherlink.com 1.10,2013-11-13 12:03:00,
2013-11-13 04:18:00,53.1,50.0,30.20,East,83,0.0,1.0,89,0.00,,,0.00,weatherlink.com 1.10,2013-11-13 12:18:00,
2013-11-13 04:33:00,52.6,50.0,30.20,East,97,0.0,1.0,89,0.00,,,0.00,weatherlink.com 1.10,2013-11-13 12:33:00,
2013-11-13 04:48:00,53.2,50.0,30.20,East,91,0.0,0.0,88,0.00,,,0.00,weatherlink.com 1.10,2013-11-13 12:48:00,
2013-11-13 05:03:00,53.0,50.0,30.20,East,87,2.0,2.0,88,0.00,,,0.00,weatherlink.com 1.10,2013-11-13 13:03:00,
2013-11-13 05:18:00,53.1,50.0,30.20,ESE,107,0.0,1.0,88,0.00,,,0.00,weatherlink.com 1.10,2013-11-13 13:18:00,
2013-11-13 05:33:00,52.8,50.0,30.20,East,82,1.0,2.0,89,0.00,,,0.00,weatherlink.com 1.10,2013-11-13 13:33:00,
2013-11-13 05:48:00,52.7,50.0,30.18,East,89,0.0,3.0,89,0.00,,,0.00,weatherlink.com 1.10,2013-11-13 13:48:00,
2013-11-13 06:04:00,53.0,50.0,30.18,East,93,1.0,2.0,88,0.00,,,0.00,weatherlink.com 1.10,2013-11-13 14:04:00,
2013-11-13 06:19:00,52.8,49.0,30.19,ENE,61,1.0,2.0,88,0.00,,,0.00,weatherlink.com 1.10,2013-11-13 14:19:00,
2013-11-13 06:34:00,53.1,50.0,30.20,East,90,0.0,1.0,88,0.00,,,0.00,weatherlink.com 1.10,2013-11-13 14:34:00,
2013-11-13 06:49:00,53.1,50.0,30.19,ESE,115,1.0,2.0,88,0.00,,,0.00,weatherlink.com 1.10,2013-11-13 14:49:00,
2013-11-13 07:04:00,52.8,49.0,30.20,ESE,110,1.0,1.0,88,0.00,,,0.00,weatherlink.com 1.10,2013-11-13 15:04:00,
2013-11-13 07:19:00,52.7,50.0,30.21,East,94,0.0,1.0,89,0.00,,,0.00,weatherlink.com 1.10,2013-11-13 15:19:00,
2013-11-13 07:34:00,52.8,50.0,30.21,East,95,1.0,1.0,90,0.00,,,0.00,weatherlink.com 1.10,2013-11-13 15:34:00,
2013-11-13 07:49:00,54.3,52.0,30.22,East,95,0.0,1.0,90,0.00,,,0.00,weatherlink.com 1.10,2013-11-13 15:49:00,
2013-11-13 08:04:00,56.5,54.0,30.23,East,94,0.0,0.0,91,0.00,,,0.00,weatherlink.com 1.10,2013-11-13 16:04:00,
2013-11-13 08:19:00,60.2,56.0,30.23,East,95,0.0,0.0,85,0.00,,,0.00,weatherlink.com 1.10,2013-11-13 16:19:00,
2013-11-13 08:34:00,60.3,54.0,30.22,East,91,0.0,1.0,79,0.00,,,0.00,weatherlink.com 1.10,2013-11-13 16:34:00,
2013-11-13 08:49:00,58.5,52.0,30.23,NNW,330,0.0,0.0,80,0.00,,,0.00,weatherlink.com 1.10,2013-11-13 16:49:00,
2013-11-13 09:04:00,58.9,53.0,30.22,NW,309,0.0,0.0,80,0.00,,,0.00,weatherlink.com 1.10,2013-11-13 17:04:00,
2013-11-13 09:19:00,60.3,53.0,30.22,NW,316,0.0,0.0,76,0.00,,,0.00,weatherlink.com 1.10,2013-11-13 17:19:00,
2013-11-13 09:34:00,60.9,53.0,30.21,WNW,302,0.0,0.0,76,0.00,,,0.00,weatherlink.com 1.10,2013-11-13 17:34:00,
2013-11-13 09:49:00,62.0,53.0,30.21,NW,314,0.0,0.0,73,0.00,,,0.00,weatherlink.com 1.10,2013-11-13 17:49:00,
2013-11-13 10:04:00,63.5,53.0,30.21,WNW,297,1.0,3.0,69,0.00,,,0.00,weatherlink.com 1.10,2013-11-13 18:04:00,
2013-11-13 10:19:00,64.3,54.0,30.21,WSW,252,3.0,5.0,69,0.00,,,0.00,weatherlink.com 1.10,2013-11-13 18:19:00,
2013-11-13 10:34:00,64.7,55.0,30.21,NW,307,4.0,5.0,70,0.00,,,0.00,weatherlink.com 1.10,2013-11-13 18:34:00,
2013-11-13 10:49:00,65.4,54.0,30.20,WNW,297,3.0,5.0,66,0.00,,,0.00,weatherlink.com 1.10,2013-11-13 18:49:00,
2013-11-13 11:04:00,66.6,53.0,30.19,NW,309,1.0,3.0,62,0.00,,,0.00,weatherlink.com 1.10,2013-11-13 19:04:00,
2013-11-13 11:19:00,67.2,55.0,30.18,WSW,248,4.0,5.0,66,0.00,,,0.00,weatherlink.com 1.10,2013-11-13 19:19:00,
2013-11-13 11:34:00,67.1,54.0,30.17,SW,232,1.0,5.0,63,0.00,,,0.00,weatherlink.com 1.10,2013-11-13 19:34:00,
2013-11-13 11:49:00,67.1,55.0,30.16,WSW,240,0.0,5.0,66,0.00,,,0.00,weatherlink.com 1.10,2013-11-13 19:49:00,
2013-11-13 12:04:00,66.8,55.0,30.16,SSW,201,1.0,4.0,66,0.00,,,0.00,weatherlink.com 1.10,2013-11-13 20:04:00,
2013-11-13 12:19:00,67.9,55.0,30.15,SW,218,2.0,4.0,64,0.00,,,0.00,weatherlink.com 1.10,2013-11-13 20:19:00,
2013-11-13 12:34:00,68.5,55.0,30.14,SW,235,2.0,3.0,63,0.00,,,0.00,weatherlink.com 1.10,2013-11-13 20:34:00,
2013-11-13 12:49:00,68.5,55.0,30.14,West,259,3.0,6.0,63,0.00,,,0.00,weatherlink.com 1.10,2013-11-13 20:49:00,
2013-11-13 13:04:00,68.9,55.0,30.13,WSW,238,5.0,6.0,62,0.00,,,0.00,weatherlink.com 1.10,2013-11-13 21:04:00,
2013-11-13 13:19:00,66.3,55.0,30.13,SW,219,3.0,8.0,67,0.00,,,0.00,weatherlink.com 1.10,2013-11-13 21:19:00,
2013-11-13 13:35:00,65.9,55.0,30.12,South,191,6.0,9.0,67,0.00,,,0.00,weatherlink.com 1.10,2013-11-13 21:35:00,
2013-11-13 13:50:00,64.6,55.0,30.11,SSE,166,10.0,10.0,71,0.00,,,0.00,weatherlink.com 1.10,2013-11-13 21:50:00,
2013-11-13 14:05:00,64.9,55.0,30.11,SSW,195,6.0,10.0,70,0.00,,,0.00,weatherlink.com 1.10,2013-11-13 22:05:00,
2013-11-13 14:20:00,64.5,54.0,30.11,South,180,3.0,13.0,69,0.00,,,0.00,weatherlink.com 1.10,2013-11-13 22:20:00,
2013-11-13 14:35:00,62.3,54.0,30.11,SSE,160,6.0,14.0,73,0.00,,,0.00,weatherlink.com 1.10,2013-11-13 22:35:00,
2013-11-13 14:50:00,58.7,53.0,30.10,SE,131,5.0,15.0,81,0.00,,,0.00,weatherlink.com 1.10,2013-11-13 22:50:00,
2013-11-13 15:05:00,58.3,53.0,30.10,SSE,162,4.0,14.0,83,0.00,,,0.00,weatherlink.com 1.10,2013-11-13 23:05:00,
2013-11-13 15:20:00,58.3,53.0,30.10,South,180,7.0,12.0,82,0.00,,,0.00,weatherlink.com 1.10,2013-11-13 23:20:00,
2013-11-13 15:35:00,58.0,54.0,30.09,ESE,109,2.0,9.0,85,0.00,,,0.00,weatherlink.com 1.10,2013-11-13 23:35:00,
2013-11-13 15:50:00,58.8,53.0,30.10,SSE,162,4.0,11.0,82,0.00,,,0.00,weatherlink.com 1.10,2013-11-13 23:50:00,
2013-11-13 16:05:00,57.6,53.0,30.10,South,184,2.0,10.0,83,0.00,,,0.00,weatherlink.com 1.10,2013-11-14 00:05:00,
2013-11-13 16:20:00,56.1,53.0,30.10,ESE,120,0.0,8.0,88,0.00,,,0.00,weatherlink.com 1.10,2013-11-14 00:20:00,
2013-11-13 16:35:00,56.0,53.0,30.10,SSW,211,3.0,7.0,88,0.00,,,0.00,weatherlink.com 1.10,2013-11-14 00:35:00,
2013-11-13 16:50:00,55.8,53.0,30.09,SW,232,1.0,6.0,90,0.00,,,0.00,weatherlink.com 1.10,2013-11-14 00:50:00,
2013-11-13 17:05:00,55.5,52.0,30.09,SSE,148,1.0,2.0,89,0.00,,,0.00,weatherlink.com 1.10,2013-11-14 01:05:00,
2013-11-13 17:20:00,55.0,52.0,30.09,SSW,212,4.0,8.0,90,0.00,,,0.00,weatherlink.com 1.10,2013-11-14 01:20:00,
2013-11-13 17:35:00,54.6,52.0,30.10,SSW,210,1.0,3.0,91,0.00,,,0.00,weatherlink.com 1.10,2013-11-14 01:35:00,
2013-11-13 17:50:00,54.4,52.0,30.10,South,188,3.0,8.0,92,0.00,,,0.00,weatherlink.com 1.10,2013-11-14 01:50:00,
2013-11-13 18:05:00,54.2,52.0,30.11,SSE,165,6.0,10.0,92,0.00,,,0.00,weatherlink.com 1.10,2013-11-14 02:05:00,
2013-11-13 18:20:00,54.1,52.0,30.10,SE,139,3.0,10.0,93,0.00,,,0.00,weatherlink.com 1.10,2013-11-14 02:20:00,
2013-11-13 18:35:00,53.6,52.0,30.10,SW,228,2.0,8.0,93,0.00,,,0.00,weatherlink.com 1.10,2013-11-14 02:35:00,
2013-11-13 18:50:00,53.2,52.0,30.11,South,187,6.0,9.0,94,0.00,,,0.00,weatherlink.com 1.10,2013-11-14 02:50:00,
2013-11-13 19:05:00,53.0,51.0,30.09,SSE,148,2.0,9.0,94,0.00,,,0.00,weatherlink.com 1.10,2013-11-14 03:05:00,
2013-11-13 19:20:00,53.0,52.0,30.10,West,259,5.0,9.0,95,0.00,,,0.00,weatherlink.com 1.10,2013-11-14 03:20:00,
2013-11-13 19:35:00,52.9,52.0,30.09,SSE,149,7.0,9.0,95,0.00,,,0.00,weatherlink.com 1.10,2013-11-14 03:35:00,
2013-11-13 19:50:00,52.8,52.0,30.09,SSE,149,4.0,9.0,95,0.00,,,0.00,weatherlink.com 1.10,2013-11-14 03:50:00,
2013-11-13 20:05:00,52.5,51.0,30.09,SSE,159,6.0,8.0,95,0.00,,,0.00,weatherlink.com 1.10,2013-11-14 04:05:00,
2013-11-13 20:20:00,52.4,51.0,30.08,SSE,159,3.0,5.0,95,0.00,,,0.00,weatherlink.com 1.10,2013-11-14 04:20:00,
2013-11-13 20:35:00,52.3,51.0,30.09,SSE,150,3.0,6.0,96,0.00,,,0.00,weatherlink.com 1.10,2013-11-14 04:35:00,
2013-11-13 20:50:00,52.5,51.0,30.09,SE,139,3.0,5.0,96,0.00,,,0.00,weatherlink.com 1.10,2013-11-14 04:50:00,
2013-11-13 21:05:00,52.7,52.0,30.09,SSW,197,3.0,9.0,96,0.00,,,0.00,weatherlink.com 1.10,2013-11-14 05:05:00,
2013-11-13 21:20:00,52.9,52.0,30.10,SSE,162,3.0,7.0,96,0.00,,,0.00,weatherlink.com 1.10,2013-11-14 05:20:00,
2013-11-13 21:35:00,52.9,52.0,30.10,SE,146,6.0,8.0,96,0.00,,,0.00,weatherlink.com 1.10,2013-11-14 05:35:00,
2013-11-13 21:50:00,52.8,52.0,30.10,South,189,6.0,7.0,96,0.00,,,0.00,weatherlink.com 1.10,2013-11-14 05:50:00,
2013-11-13 22:05:00,52.7,52.0,30.10,SW,228,3.0,6.0,96,0.00,,,0.00,weatherlink.com 1.10,2013-11-14 06:05:00,
2013-11-13 22:20:00,52.7,52.0,30.10,SSE,159,6.0,8.0,96,0.00,,,0.00,weatherlink.com 1.10,2013-11-14 06:20:00,
2013-11-13 22:35:00,52.8,52.0,30.10,SSE,160,1.0,9.0,96,0.00,,,0.00,weatherlink.com 1.10,2013-11-14 06:35:00,
2013-11-13 22:50:00,52.8,52.0,30.11,SW,216,8.0,8.0,96,0.00,,,0.00,weatherlink.com 1.10,2013-11-14 06:50:00,
2013-11-13 23:05:00,52.5,51.0,30.11,SSE,152,1.0,12.0,96,0.00,,,0.00,weatherlink.com 1.10,2013-11-14 07:05:00,
2013-11-13 23:20:00,52.3,51.0,30.10,SSW,212,7.0,10.0,96,0.00,,,0.00,weatherlink.com 1.10,2013-11-14 07:20:00,
2013-11-13 23:35:00,52.2,51.0,30.09,SSW,212,1.0,7.0,96,0.00,,,0.00,weatherlink.com 1.10,2013-11-14 07:35:00,
2013-11-13 23:50:00,52.3,52.0,30.09,SE,145,2.0,7.0,97,0.00,,,0.00,weatherlink.com 1.10,2013-11-14 07:50:00,